When you browse on this site, cookies collect data to enhance your experience and personalize the content and advertising you see.
Visit our Privacy Policy to learn more. By continuing to use the site, you agree to this use of cookies and data.
  • In Czech Republic
  • List of Countries
  • For 7 days
  • Water Temperature
  • Weather Map
  • Weather Widgets
  • user-avatar
    Login

    Hourly Weather Gomel

    Today, 2 June, Tuesday

    Time Temperature Precipitation Wind Pressure Humidity
    00:00 +8°C° 0.3 mm 2 mps 743 mmHg 96%
    01:00 +8°C° 0.3 mm 2 mps 742 mmHg 97%
    02:00 +8°C° 0 mm 2 mps 742 mmHg 95%
    03:00 +8°C° 0.1 mm 2 mps 741 mmHg 95%
    04:00 +9°C° 0.1 mm 1 mps 741 mmHg 96%
    05:00 +9°C° 0.1 mm 1 mps 741 mmHg 96%
    06:00 +10°C° 0.1 mm 1 mps 741 mmHg 93%
    07:00 +10°C° 0.1 mm 2 mps 741 mmHg 90%
    08:00 +10°C° 0 mm 3 mps 741 mmHg 86%
    09:00 +11°C° 0.1 mm 3 mps 741 mmHg 80%
    10:00 +13°C° 0.1 mm 3 mps 742 mmHg 73%
    11:00 +14°C° 0.1 mm 3 mps 742 mmHg 67%
    12:00 +14°C° 0.2 mm 4 mps 742 mmHg 65%
    13:00 +15°C° 0.2 mm 4 mps 742 mmHg 63%
    14:00 +15°C° 0.2 mm 5 mps 742 mmHg 62%
    15:00 +15°C° 0.2 mm 5 mps 742 mmHg 64%
    16:00 +15°C° 0.2 mm 5 mps 742 mmHg 65%
    17:00 +14°C° 0.2 mm 4 mps 742 mmHg 67%
    18:00 +13°C° 0.1 mm 4 mps 742 mmHg 73%
    19:00 +11°C° 0.1 mm 3 mps 742 mmHg 79%
    20:00 +10°C° 0.1 mm 3 mps 742 mmHg 86%
    21:00 +9°C° 0 mm 3 mps 743 mmHg 88%
    22:00 +9°C° 0 mm 3 mps 743 mmHg 90%
    23:00 +8°C° 0 mm 3 mps 743 mmHg 93%

    Tomorrow, 3 June, Wednesday

    Time Temperature Precipitation Wind Pressure Humidity
    00:00 +8°C° 0 mm 3 mps 743 mmHg 93%
    01:00 +7°C° 0 mm 3 mps 743 mmHg 93%
    02:00 +7°C° 0 mm 3 mps 743 mmHg 94%
    03:00 +7°C° 0 mm 3 mps 743 mmHg 93%
    04:00 +7°C° 0 mm 3 mps 743 mmHg 93%
    05:00 +7°C° 0 mm 3 mps 743 mmHg 92%
    06:00 +8°C° 0 mm 4 mps 743 mmHg 86%
    07:00 +11°C° 0 mm 4 mps 743 mmHg 80%
    08:00 +13°C° 0 mm 4 mps 743 mmHg 75%
    09:00 +14°C° 0.1 mm 5 mps 743 mmHg 71%
    10:00 +15°C° 0.1 mm 5 mps 743 mmHg 68%
    11:00 +16°C° 0.1 mm 5 mps 743 mmHg 65%
    12:00 +16°C° 0.4 mm 5 mps 743 mmHg 65%
    13:00 +17°C° 0.4 mm 5 mps 743 mmHg 64%
    14:00 +18°C° 0.4 mm 4 mps 743 mmHg 63%
    15:00 +18°C° 0.2 mm 4 mps 742 mmHg 64%
    16:00 +18°C° 0.2 mm 4 mps 742 mmHg 66%
    17:00 +17°C° 0.2 mm 4 mps 742 mmHg 67%
    18:00 +15°C° 0.2 mm 4 mps 742 mmHg 74%
    19:00 +13°C° 0.2 mm 3 mps 742 mmHg 81%
    20:00 +12°C° 0.2 mm 3 mps 742 mmHg 87%
    21:00 +11°C° 0 mm 3 mps 742 mmHg 89%
    22:00 +10°C° 0 mm 3 mps 741 mmHg 91%
    23:00 +10°C° 0 mm 3 mps 741 mmHg 93%

    Day after tomorrow, 4 June, Thursday

    Time Temperature Precipitation Wind Pressure Humidity
    00:00 +9°C° 0 mm 3 mps 741 mmHg 94%
    01:00 +9°C° 0 mm 3 mps 741 mmHg 94%
    02:00 +8°C° 0 mm 2 mps 741 mmHg 95%
    03:00 +9°C° 0 mm 2 mps 741 mmHg 95%
    04:00 +9°C° 0 mm 2 mps 741 mmHg 96%
    05:00 +9°C° 0 mm 2 mps 741 mmHg 96%
    06:00 +10°C° 0 mm 3 mps 741 mmHg 91%
    07:00 +12°C° 0 mm 3 mps 741 mmHg 86%
    08:00 +14°C° 0 mm 4 mps 742 mmHg 81%
    09:00 +15°C° 0.1 mm 4 mps 741 mmHg 75%
    10:00 +17°C° 0.1 mm 4 mps 741 mmHg 69%
    11:00 +17°C° 0.1 mm 5 mps 741 mmHg 63%
    12:00 +17°C° 0.2 mm 5 mps 741 mmHg 61%
    13:00 +19°C° 0.2 mm 5 mps 741 mmHg 60%
    14:00 +19°C° 0.2 mm 5 mps 741 mmHg 59%
    15:00 +19°C° 0.4 mm 5 mps 741 mmHg 64%
    16:00 +17°C° 0.4 mm 5 mps 741 mmHg 68%
    17:00 +17°C° 0.4 mm 5 mps 741 mmHg 73%
    18:00 +15°C° 0.5 mm 4 mps 741 mmHg 78%
    19:00 +14°C° 0.5 mm 4 mps 741 mmHg 83%
    20:00 +12°C° 0.5 mm 3 mps 741 mmHg 88%
    21:00 +12°C° 0 mm 3 mps 741 mmHg 90%
    22:00 +11°C° 0 mm 3 mps 741 mmHg 92%
    23:00 +11°C° 0 mm 3 mps 741 mmHg 93%

    5 June, Friday

    Time Temperature Precipitation Wind Pressure Humidity
    00:00 +10°C° 0 mm 3 mps 742 mmHg 94%
    01:00 +10°C° 0 mm 3 mps 742 mmHg 94%
    02:00 +10°C° 0 mm 3 mps 742 mmHg 95%
    03:00 +10°C° 0 mm 3 mps 742 mmHg 95%
    04:00 +10°C° 0 mm 2 mps 742 mmHg 95%
    05:00 +10°C° 0 mm 2 mps 742 mmHg 95%
    06:00 +12°C° 0 mm 3 mps 743 mmHg 90%
    07:00 +14°C° 0 mm 3 mps 743 mmHg 85%
    08:00 +17°C° 0 mm 4 mps 743 mmHg 80%
    09:00 +17°C° 0.3 mm 5 mps 743 mmHg 74%
    10:00 +20°C° 0.3 mm 6 mps 743 mmHg 68%
    11:00 +21°C° 0.3 mm 7 mps 743 mmHg 62%
    12:00 +22°C° 0.2 mm 7 mps 743 mmHg 62%
    13:00 +22°C° 0.2 mm 7 mps 743 mmHg 63%
    14:00 +22°C° 0.2 mm 7 mps 743 mmHg 64%
    15:00 +21°C° 0.7 mm 6 mps 743 mmHg 69%
    16:00 +20°C° 0.7 mm 5 mps 743 mmHg 75%
    17:00 +20°C° 0.7 mm 4 mps 743 mmHg 80%
    18:00 +18°C° 0.1 mm 4 mps 743 mmHg 85%
    19:00 +17°C° 0.1 mm 4 mps 743 mmHg 90%
    20:00 +15°C° 0.1 mm 4 mps 743 mmHg 94%
    21:00 +15°C° 0.2 mm 4 mps 743 mmHg 95%
    22:00 +15°C° 0.2 mm 4 mps 743 mmHg 95%
    23:00 +15°C° 0.2 mm 5 mps 744 mmHg 96%

    6 June, Saturday

    Time Temperature Precipitation Wind Pressure Humidity
    00:00 +15°C° 0.3 mm 4 mps 743 mmHg 96%
    01:00 +15°C° 0.3 mm 4 mps 743 mmHg 96%
    02:00 +14°C° 0.3 mm 4 mps 743 mmHg 97%
    03:00 +15°C° 0.2 mm 4 mps 743 mmHg 96%
    04:00 +15°C° 0.2 mm 4 mps 744 mmHg 96%
    05:00 +16°C° 0.2 mm 3 mps 744 mmHg 96%
    06:00 +17°C° 0.1 mm 4 mps 744 mmHg 93%
    07:00 +19°C° 0.1 mm 4 mps 744 mmHg 90%
    08:00 +20°C° 0.1 mm 4 mps 744 mmHg 87%
    09:00 +21°C° 0 mm 4 mps 745 mmHg 84%
    10:00 +22°C° 0 mm 4 mps 745 mmHg 81%
    11:00 +23°C° 0 mm 4 mps 745 mmHg 77%
    12:00 +23°C° 0.3 mm 4 mps 745 mmHg 76%
    13:00 +25°C° 0.3 mm 4 mps 746 mmHg 74%
    14:00 +25°C° 0.3 mm 4 mps 746 mmHg 72%
    15:00 +25°C° 0.7 mm 3 mps 746 mmHg 75%
    16:00 +24°C° 0.7 mm 2 mps 746 mmHg 77%
    17:00 +23°C° 0.7 mm 2 mps 746 mmHg 79%
    18:00 +21°C° 0.1 mm 2 mps 746 mmHg 83%
    19:00 +20°C° 0.1 mm 2 mps 747 mmHg 87%
    20:00 +20°C° 0.1 mm 1 mps 747 mmHg 91%
    21:00 +19°C° 0.1 mm 1 mps 747 mmHg 92%
    22:00 +18°C° 0.1 mm 1 mps 748 mmHg 93%
    23:00 +16°C° 0.1 mm 1 mps 748 mmHg 93%

    7 June, Sunday

    Time Temperature Precipitation Wind Pressure Humidity
    00:00 +16°C° 0 mm 1 mps 748 mmHg 94%
    01:00 +16°C° 0 mm 1 mps 749 mmHg 94%
    02:00 +15°C° 0 mm 1 mps 749 mmHg 94%
    03:00 +15°C° 0 mm 1 mps 749 mmHg 94%
    04:00 +16°C° 0 mm 1 mps 749 mmHg 95%
    05:00 +16°C° 0 mm 1 mps 750 mmHg 95%
    06:00 +18°C° 0 mm 1 mps 750 mmHg 90%
    07:00 +20°C° 0 mm 1 mps 750 mmHg 86%
    08:00 +21°C° 0 mm 1 mps 750 mmHg 81%
    09:00 +23°C° 0 mm 1 mps 750 mmHg 76%
    10:00 +24°C° 0 mm 1 mps 750 mmHg 72%
    11:00 +26°C° 0 mm 2 mps 751 mmHg 67%
    12:00 +26°C° 0.3 mm 2 mps 750 mmHg 65%
    13:00 +27°C° 0.3 mm 2 mps 750 mmHg 64%
    14:00 +27°C° 0.3 mm 2 mps 750 mmHg 63%
    15:00 +27°C° 1 mm 2 mps 750 mmHg 67%
    16:00 +26°C° 1 mm 2 mps 750 mmHg 71%
    17:00 +26°C° 1 mm 2 mps 749 mmHg 74%
    18:00 +25°C° 1.3 mm 2 mps 749 mmHg 78%
    19:00 +23°C° 1.3 mm 2 mps 749 mmHg 82%
    20:00 +21°C° 1.3 mm 2 mps 749 mmHg 85%
    21:00 +20°C° 0.1 mm 2 mps 750 mmHg 87%
    22:00 +19°C° 0.1 mm 2 mps 750 mmHg 89%
    23:00 +19°C° 0.1 mm 2 mps 750 mmHg 91%
    Show more